星链-36563(STARLINK-36563)

导读

STARLINK-36563是美国星链互联网卫星星座中的一员,由美国太空探索技术公司SpaceX开发,于2026年1月22日发射入轨,旨在完成星链星座部署,为全球提供高速低延迟的宽带互联网服务,进一步扩充星链星座的在轨规模,提升星座网络覆盖能力与服务稳定性。

基本信息
目录编号:
67550
目录名称:
STARLINK-36563
国际标识:
2026-014U
轨道中心:
EARTH
卫星名称:
星链-36563
卫星全名:
星链-36563(STARLINK-36563)
卫星状态:
在轨 (已飞行226 天)
发射日期:
2026-01-22 UTC
国别 :
美国 (US)
星等 :
--
轨道信息
数据来源 国际轨道数据
星历时间: 2026-09-05T13:36:40+0800
9小时前
查看轨道信息
半长轴: 6843.621km
偏心率: 0.0001696
轨道倾角: 97.285°
近地点辐角 90.433°
升交点赤经 133.892°
平近点角 269.711°
近地点: 464.323km
远地点: 466.645km
周期: 93.905分钟
每日圈数: 15.33465
详细信息
固有亮度:
5
最大亮度:
2.5
卫星平台:
Starlink V1.0
覆盖范围:
全球
运营商:
太空探索技术公司
运营商所在国:
美国
制造商(研发单位):
太空探索技术公司
制造商所在国:
美国
使用方式:
暂无
卫星简介
Starlink 计划是 SpaceX 推出的全球卫星互联网项目,通过发射低轨道卫星,为全球尤其是偏远地区提供高速、低延迟的互联网服务。自 2019 年起,Starlink 已部署数千颗卫星,旨在缩小全球数字鸿沟,推动互联网普及。该项目还为军事、航空等行业提供通信支持,带来广泛经济效益。
2D轨道图
3D轨道图
轨道高度分析图
轨道倾角分析图
轨道综合分析图
查看轨道综合分析图
交会数据列表
事件ID 空间交会对象 最接近时刻(TCA) 交会距离 交会风险概率(CRP) 交会风险指数(CRI) 操作
CDM_260829-205006-187006-755024
OBJECT B (61870)
2026-08-29T
20:50:11+0000
1.286 km
极远距离
1.148186E-5 中风险 0.56
CDM_260907-191606-050406-755021
YAM-7 (60504)
2026-09-07T
19:16:31+0000
1.782 km
极远距离
3.966672E-6 低风险 0.47
CDM_260907-205006-050406-755021
YAM-7 (60504)
2026-09-07T
20:50:30+0000
1.981 km
极远距离
2.95874E-6 低风险 0.44
CDM_260908-004504-763006-755021
2026-09-08T
00:45:57+0000
2.385 km
极远距离
1.8666E-6 低风险 0.4
CDM_260907-061905-302506-755021
2026-09-07T
06:19:01+0000
2.742 km
极远距离
1.48578E-6 低风险 0.38
CDM_260903-042706-418706-755021
2026-09-03T
04:27:27+0000
2.879 km
极远距离
1.375893E-6 低风险 0.38
CDM_260903-073104-828406-755021
2026-09-03T
07:31:09+0000
2.944 km
极远距离
1.360232E-6 低风险 0.38
CDM_260907-175704-831006-755021
2026-09-07T
17:57:22+0000
2.998 km
极远距离
1.336978E-6 低风险 0.38
CDM_260906-025905-255406-755021
2026-09-06T
02:59:08+0000
2.838 km
极远距离
1.241066E-6 低风险 0.37
CDM_260906-094606-386406-755021
2026-09-06T
09:46:14+0000
2.182 km
极远距离
1.006378E-6 低风险 0.35